Location: Praha
(50.0830°N, 14.4670°E)
Time: 07:09:48
(UTC+02:00)

ISS - Pass Details

Date: 29 June 2022
Orbit: 414 x 420 km, 51.6° (Epoch: 02 July)

Event Time Altitude Azimuth Distance (km) Brightness Sun altitude
Exits shadow 03:22:11 10° 170° (S) 1,514 -1.4 -10.7°
Reaches altitude 10° 03:22:18 10° 168° (SSE) 1,491 -1.4 -10.7°
Maximum altitude 03:24:00 13° 137° (SE) 1,305 -1.4 -10.5°
Drops below altitude 10° 03:25:42 10° 106° (ESE) 1,498 -0.7 -10.4°
Sets 03:28:37 0° 79° (E) 2,368 0.8 -10.1°
